Location: Aufkirchen
(47.9603°N, 11.3653°E)
Time: 17:32:43
(UTC+01:00)

Transit 4A - Pass Details

Date: 29 November 2020
Orbit: 864 x 980 km, 66.8° (Epoch: 26 January)

Event Time Altitude Azimuth Distance (km) Brightness Sun altitude
Rises 14:16:50 0° 322° (NW) 3,691 10.8 14.2°
Reaches altitude 10° 14:20:09 10° 339° (NNW) 2,738 10.1 13.9°
Maximum altitude 14:24:53 21° 26° (NNE) 2,036 9.2 13.5°
Drops below altitude 10° 14:29:33 10° 74° (ENE) 2,699 9.9 13.1°
Sets 14:32:47 0° 91° (E) 3,625 10.6 12.8°
